| time (UTC) | temp F | wind direction | speed MPH | gust MPH | rain 1hr in | rain 24hr in | rain mn in | humidity % | barometer mb |
| 20260903182601 | 97 | 90 | 1.0 | 1.0 | 0.00 | 0.00 | 0.00 | 43 | 1009.2 |
| 20260903182059 | 98 | 131 | 0.0 | 1.0 | 0.00 | 0.00 | 0.00 | 43 | 1009.2 |
| 20260903181556 | 97 | 167 | 4.0 | 5.0 | 0.00 | 0.00 | 0.00 | 44 | 1009.5 |
| 20260903181051 | 96 | 86 | 2.0 | 2.0 | 0.00 | 0.00 | 0.00 | 45 | 1009.5 |
| 20260903180546 | 96 | 123 | 2.0 | 2.0 | 0.00 | 0.00 | 0.00 | 46 | 1009.4 |
| 20260903180041 | 96 | 107 | 1.0 | 2.0 | 0.00 | 0.00 | 0.00 | 47 | 1009.6 |
| 20260903175540 | 96 | 312 | 3.0 | 6.0 | 0.00 | 0.00 | 0.00 | 46 | 1009.7 |
| 20260903175040 | 96 | 340 | 4.0 | 6.0 | 0.00 | 0.00 | 0.00 | 47 | 1009.6 |
| 20260903174535 | 96 | 134 | 1.0 | 2.0 | 0.00 | 0.00 | 0.00 | 47 | 1009.9 |
| 20260903174029 | 95 | 228 | 1.0 | 2.0 | 0.00 | 0.00 | 0.00 | 48 | 1009.9 |
| 20260903173523 | 95 | 322 | 4.0 | 5.0 | 0.00 | 0.00 | 0.00 | 48 | 1009.9 |
| 20260903173020 | 95 | 270 | 1.0 | 2.0 | 0.00 | 0.00 | 0.00 | 48 | 1009.9 |
| 20260903172514 | 95 | 122 | 1.0 | 1.0 | 0.00 | 0.00 | 0.00 | 48 | 1009.9 |
| 20260903172010 | 94 | 72 | 2.0 | 2.0 | 0.00 | 0.00 | 0.00 | 48 | 1010.0 |
| 20260903171505 | 93 | 205 | 2.0 | 2.0 | 0.00 | 0.00 | 0.00 | 51 | 1010.1 |
| 20260903171000 | 93 | 114 | 1.0 | 2.0 | 0.00 | 0.00 | 0.00 | 53 | 1010.2 |
| 20260903170459 | 93 | 107 | 2.0 | 2.0 | 0.00 | 0.00 | 0.00 | 54 | 1010.1 |
| 20260903165954 | 92 | 343 | 3.0 | 3.0 | 0.00 | 0.00 | 0.00 | 55 | 1010.1 |
| 20260903165453 | 92 | 269 | 3.0 | 5.0 | 0.00 | 0.00 | 0.00 | 55 | 1010.3 |
| 20260903164948 | 92 | 151 | 1.0 | 2.0 | 0.00 | 0.00 | 0.00 | 56 | 1010.2 |
| 20260903164444 | 91 | 1 | 2.0 | 5.0 | 0.00 | 0.00 | 0.00 | 56 | 1010.5 |
| 20260903163943 | 91 | 11 | 3.0 | 3.0 | 0.00 | 0.00 | 0.00 | 57 | 1010.5 |
| 20260903163439 | 91 | 188 | 6.0 | 9.0 | 0.00 | 0.00 | 0.00 | 57 | 1010.6 |
| 20260903162935 | 90 | 294 | 3.0 | 3.0 | 0.00 | 0.00 | 0.00 | 59 | 1010.8 |
| 20260903162431 | 91 | 165 | 5.0 | 8.0 | 0.00 | 0.00 | 0.00 | 58 | 1010.7 |
| 20260903161926 | 90 | 270 | 5.0 | 6.0 | 0.00 | 0.00 | 0.00 | 59 | 1010.7 |
| 20260903161421 | 90 | 199 | 4.0 | 8.0 | 0.00 | 0.00 | 0.00 | 59 | 1010.7 |
| 20260903160918 | 90 | 286 | 5.0 | 8.0 | 0.00 | 0.00 | 0.00 | 58 | 1010.9 |
| 20260903160416 | 90 | 175 | 3.0 | 5.0 | 0.00 | 0.00 | 0.00 | 56 | 1010.9 |
| 20260903155915 | 90 | 44 | 1.0 | 1.0 | 0.00 | 0.00 | 0.00 | 55 | 1010.8 |
| 20260903155411 | 90 | 57 | 3.0 | 7.0 | 0.00 | 0.00 | 0.00 | 56 | 1010.6 |
| 20260903154906 | 90 | 330 | 3.0 | 3.0 | 0.00 | 0.00 | 0.00 | 56 | 1010.9 |
| 20260903154402 | 90 | 193 | 7.0 | 9.0 | 0.00 | 0.00 | 0.00 | 57 | 1010.7 |
| 20260903153902 | 90 | 53 | 3.0 | 3.0 | 0.00 | 0.00 | 0.00 | 57 | 1010.8 |
| 20260903153358 | 89 | 178 | 3.0 | 5.0 | 0.00 | 0.00 | 0.00 | 59 | 1010.8 |
| 20260903152854 | 89 | 136 | 3.0 | 3.0 | 0.00 | 0.00 | 0.00 | 60 | 1010.8 |
| 20260903152350 | 89 | 223 | 3.0 | 3.0 | 0.00 | 0.00 | 0.00 | 60 | 1011.0 |
| 20260903151845 | 88 | 344 | 3.0 | 5.0 | 0.00 | 0.00 | 0.00 | 62 | 1010.9 |
| 20260903151340 | 88 | 138 | 1.0 | 1.0 | 0.00 | 0.00 | 0.00 | 62 | 1010.9 |
| 20260903150840 | 88 | 84 | 2.0 | 2.0 | 0.00 | 0.00 | 0.00 | 63 | 1010.7 |
| 20260903150335 | 87 | 164 | 3.0 | 3.0 | 0.00 | 0.00 | 0.00 | 64 | 1010.8 |
| 20260903145830 | 87 | 121 | 3.0 | 3.0 | 0.00 | 0.00 | 0.00 | 66 | 1010.6 |
| 20260903145325 | 86 | 334 | 3.0 | 5.0 | 0.00 | 0.00 | 0.00 | 67 | 1010.7 |
| 20260903144824 | 86 | 183 | 2.0 | 3.0 | 0.00 | 0.00 | 0.00 | 68 | 1010.8 |
| 20260903144320 | 86 | 231 | 3.0 | 3.0 | 0.00 | 0.00 | 0.00 | 69 | 1010.8 |
| 20260903143815 | 85 | 141 | 1.0 | 1.0 | 0.00 | 0.00 | 0.00 | 70 | 1011.1 |
| 20260903143312 | 85 | 277 | 6.0 | 13.0 | 0.00 | 0.00 | 0.00 | 71 | 1011.0 |
| 20260903142807 | 84 | 260 | 3.0 | 5.0 | 0.00 | 0.00 | 0.00 | 71 | 1011.1 |
| 20260903142306 | 84 | 220 | 3.0 | 5.0 | 0.00 | 0.00 | 0.00 | 73 | 1010.9 |
| 20260903141758 | 83 | 132 | 1.0 | 2.0 | 0.00 | 0.00 | 0.00 | 74 | 1010.9 |
| 20260903141255 | 82 | 183 | 0.0 | 1.0 | 0.00 | 0.00 | 0.00 | 76 | 1011.0 |
| 20260903140749 | 82 | 149 | 1.0 | 1.0 | 0.00 | 0.00 | 0.00 | 77 | 1010.9 |
| 20260903140244 | 82 | 176 | 2.0 | 3.0 | 0.00 | 0.00 | 0.00 | 78 | 1011.1 |
| 20260903135740 | 82 | 140 | 0.0 | 1.0 | 0.00 | 0.00 | 0.00 | 78 | 1011.1 |
| 20260903135235 | 81 | 133 | 0.0 | 0.0 | 0.00 | 0.00 | 0.00 | 78 | 1011.1 |
| 20260903134734 | 81 | 135 | 1.0 | 1.0 | 0.00 | 0.00 | 0.00 | 78 | 1011.3 |
| 20260903134230 | 82 | 129 | 0.0 | 1.0 | 0.00 | 0.00 | 0.00 | 77 | 1011.3 |
| 20260903133727 | 82 | 130 | 1.0 | 1.0 | 0.00 | 0.00 | 0.00 | 77 | 1011.3 |
| 20260903133223 | 82 | 147 | 0.0 | 1.0 | 0.00 | 0.00 | 0.00 | 78 | 1011.4 |
| 20260903132723 | 80 | 131 | 1.0 | 1.0 | 0.00 | 0.00 | 0.00 | 79 | 1011.2 |
| 20260903132223 | 80 | 133 | 0.0 | 1.0 | 0.00 | 0.00 | 0.00 | 82 | 1011.0 |
| 20260903131718 | 79 | 121 | 0.0 | 0.0 | 0.00 | 0.00 | 0.00 | 82 | 1011.5 |
| 20260903131213 | 78 | 117 | 0.0 | 0.0 | 0.00 | 0.00 | 0.00 | 84 | 1011.0 |
| 20260903130708 | 77 | 113 | 1.0 | 1.0 | 0.00 | 0.00 | 0.00 | 84 | 1011.0 |
| 20260903130208 | 76 | 114 | 0.0 | 0.0 | 0.00 | 0.00 | 0.00 | 87 | 1010.8 |
| 20260903125706 | 75 | 118 | 0.0 | 0.0 | 0.00 | 0.00 | 0.00 | 90 | 1011.0 |
| 20260903125201 | 73 | 118 | 0.0 | 0.0 | 0.00 | 0.00 | 0.00 | 98 | 1011.0 |
| 20260903124656 | 72 | 115 | 0.0 | 0.0 | 0.00 | 0.00 | 0.00 | 99 | 1010.9 |
| 20260903124155 | 70 | 116 | 0.0 | 0.0 | 0.00 | 0.00 | 0.00 | 99 | 1010.9 |
| 20260903123654 | 69 | 113 | 0.0 | 0.0 | 0.00 | 0.00 | 0.00 | 99 | 1011.1 |
| 20260903123154 | 68 | 119 | 0.0 | 0.0 | 0.00 | 0.00 | 0.00 | 99 | 1011.0 |
| 20260903122653 | 68 | 116 | 0.0 | 0.0 | 0.00 | 0.00 | 0.00 | 99 | 1010.8 |
| 20260903122148 | 68 | 122 | 0.0 | 0.0 | 0.00 | 0.00 | 0.00 | 99 | 1011.0 |
| 20260903121647 | 67 | 122 | 0.0 | 0.0 | 0.00 | 0.00 | 0.00 | 99 | 1010.9 |
| 20260903121143 | 67 | 122 | 0.0 | 0.0 | 0.00 | 0.00 | 0.00 | 99 | 1011.0 |
| 20260903120642 | 67 | 121 | 0.0 | 0.0 | 0.00 | 0.00 | 0.00 | 99 | 1010.9 |
| 20260903120137 | 67 | 122 | 0.0 | 0.0 | 0.00 | 0.00 | 0.00 | 99 | 1010.7 |
| 20260903115635 | 67 | 122 | 0.0 | 0.0 | 0.00 | 0.00 | 0.00 | 99 | 1010.9 |
| 20260903115130 | 67 | 122 | 0.0 | 0.0 | 0.00 | 0.00 | 0.00 | 99 | 1011.0 |
| 20260903114626 | 67 | 121 | 0.0 | 0.0 | 0.00 | 0.00 | 0.00 | 99 | 1010.8 |
| 20260903114121 | 67 | 121 | 0.0 | 0.0 | 0.00 | 0.00 | 0.00 | 99 | 1010.5 |
| 20260903113616 | 67 | 121 | 0.0 | 0.0 | 0.00 | 0.00 | 0.00 | 99 | 1010.6 |
| 20260903113112 | 67 | 121 | 0.0 | 0.0 | 0.00 | 0.00 | 0.00 | 99 | 1010.8 |
| 20260903112608 | 67 | 122 | 0.0 | 0.0 | 0.00 | 0.00 | 0.00 | 99 | 1010.8 |
| 20260903112108 | 67 | 121 | 0.0 | 0.0 | 0.00 | 0.00 | 0.00 | 99 | 1010.7 |
| 20260903111607 | 67 | 121 | 0.0 | 0.0 | 0.00 | 0.00 | 0.00 | 99 | 1010.7 |
| 20260903111057 | 67 | 122 | 0.0 | 0.0 | 0.00 | 0.00 | 0.00 | 99 | 1010.6 |
| 20260903110553 | 67 | 122 | 0.0 | 0.0 | 0.00 | 0.00 | 0.00 | 99 | 1010.7 |
| 20260903110048 | 67 | 122 | 0.0 | 0.0 | 0.00 | 0.00 | 0.00 | 99 | 1010.6 |
| 20260903105543 | 67 | 125 | 0.0 | 0.0 | 0.00 | 0.00 | 0.00 | 99 | 1010.5 |
| 20260903105038 | 67 | 125 | 0.0 | 0.0 | 0.00 | 0.00 | 0.00 | 99 | 1010.6 |
| 20260903104537 | 67 | 123 | 0.0 | 0.0 | 0.00 | 0.00 | 0.00 | 99 | 1010.5 |
| 20260903104033 | 67 | 123 | 0.0 | 0.0 | 0.00 | 0.00 | 0.00 | 99 | 1010.4 |
| 20260903103529 | 67 | 122 | 0.0 | 0.0 | 0.00 | 0.00 | 0.00 | 99 | 1010.5 |
| 20260903103025 | 68 | 119 | 0.0 | 0.0 | 0.00 | 0.00 | 0.00 | 99 | 1010.4 |
| 20260903102520 | 67 | 119 | 0.0 | 0.0 | 0.00 | 0.00 | 0.00 | 99 | 1010.3 |
| 20260903102019 | 68 | 121 | 0.0 | 0.0 | 0.00 | 0.00 | 0.00 | 99 | 1010.4 |
| 20260903101514 | 68 | 121 | 0.0 | 0.0 | 0.00 | 0.00 | 0.00 | 99 | 1010.4 |
| 20260903101010 | 68 | 118 | 0.0 | 0.0 | 0.00 | 0.00 | 0.00 | 99 | 1010.2 |
| 20260903100504 | 68 | 121 | 0.0 | 0.0 | 0.00 | 0.00 | 0.00 | 99 | 1010.4 |
| 20260903100001 | 68 | 121 | 0.0 | 0.0 | 0.00 | 0.00 | 0.00 | 99 | 1010.2 |
| 20260903095455 | 68 | 121 | 0.0 | 0.0 | 0.00 | 0.00 | 0.00 | 99 | 1010.3 |
| 20260903094951 | 68 | 121 | 0.0 | 0.0 | 0.00 | 0.00 | 0.00 | 99 | 1010.4 |
| 20260903094450 | 68 | 121 | 0.0 | 0.0 | 0.00 | 0.00 | 0.00 | 99 | 1010.4 |
| 20260903093946 | 68 | 121 | 0.0 | 0.0 | 0.00 | 0.00 | 0.00 | 99 | 1010.2 |
| 20260903093441 | 68 | 121 | 0.0 | 0.0 | 0.00 | 0.00 | 0.00 | 99 | 1010.2 |
| 20260903092937 | 68 | 122 | 0.0 | 0.0 | 0.00 | 0.00 | 0.00 | 99 | 1010.2 |
| 20260903092437 | 68 | 118 | 0.0 | 0.0 | 0.00 | 0.00 | 0.00 | 99 | 1010.2 |
| 20260903091936 | 68 | 118 | 0.0 | 0.0 | 0.00 | 0.00 | 0.00 | 99 | 1010.3 |
| 20260903091434 | 68 | 118 | 0.0 | 0.0 | 0.00 | 0.00 | 0.00 | 99 | 1010.0 |
| 20260903090929 | 68 | 122 | 0.0 | 0.0 | 0.00 | 0.00 | 0.00 | 99 | 1010.2 |
| 20260903090425 | 68 | 122 | 0.0 | 0.0 | 0.00 | 0.00 | 0.00 | 99 | 1010.2 |
| 20260903085923 | 68 | 122 | 0.0 | 0.0 | 0.00 | 0.00 | 0.00 | 99 | 1010.1 |
| 20260903085422 | 68 | 123 | 0.0 | 0.0 | 0.00 | 0.00 | 0.00 | 98 | 1010.2 |
| 20260903084922 | 68 | 123 | 0.0 | 0.0 | 0.00 | 0.00 | 0.00 | 98 | 1010.1 |
| 20260903084420 | 68 | 123 | 0.0 | 0.0 | 0.00 | 0.00 | 0.00 | 98 | 1010.2 |
| 20260903083916 | 68 | 122 | 0.0 | 0.0 | 0.00 | 0.00 | 0.00 | 98 | 1010.4 |
| 20260903083412 | 68 | 123 | 0.0 | 0.0 | 0.00 | 0.00 | 0.00 | 98 | 1010.3 |
| 20260903082911 | 68 | 122 | 0.0 | 0.0 | 0.00 | 0.00 | 0.00 | 98 | 1010.5 |
| 20260903082406 | 68 | 122 | 0.0 | 0.0 | 0.00 | 0.00 | 0.00 | 97 | 1010.2 |
| 20260903081901 | 68 | 122 | 0.0 | 0.0 | 0.00 | 0.00 | 0.00 | 97 | 1010.4 |
| 20260903081356 | 68 | 122 | 0.0 | 0.0 | 0.00 | 0.00 | 0.00 | 97 | 1010.2 |
| 20260903080852 | 69 | 122 | 0.0 | 0.0 | 0.00 | 0.00 | 0.00 | 97 | 1010.3 |
| 20260903080349 | 69 | 122 | 0.0 | 0.0 | 0.00 | 0.00 | 0.00 | 96 | 1010.3 |
| 20260903075849 | 69 | 122 | 0.0 | 0.0 | 0.00 | 0.00 | 0.00 | 96 | 1010.3 |
| 20260903075345 | 69 | 122 | 0.0 | 0.0 | 0.00 | 0.00 | 0.00 | 96 | 1010.1 |
| 20260903074844 | 69 | 122 | 0.0 | 0.0 | 0.00 | 0.00 | 0.00 | 96 | 1010.0 |
| 20260903074338 | 69 | 122 | 0.0 | 0.0 | 0.00 | 0.00 | 0.00 | 96 | 1010.3 |
| 20260903073834 | 69 | 122 | 0.0 | 0.0 | 0.00 | 0.00 | 0.00 | 96 | 1010.4 |
| 20260903073329 | 69 | 122 | 0.0 | 0.0 | 0.00 | 0.00 | 0.00 | 96 | 1010.1 |
| 20260903072825 | 69 | 122 | 0.0 | 0.0 | 0.00 | 0.00 | 0.00 | 95 | 1010.2 |
| 20260903072321 | 69 | 122 | 0.0 | 0.0 | 0.00 | 0.00 | 0.00 | 95 | 1010.2 |
| 20260903071818 | 69 | 122 | 0.0 | 0.0 | 0.00 | 0.00 | 0.00 | 95 | 1010.1 |
| 20260903071314 | 69 | 122 | 0.0 | 0.0 | 0.00 | 0.00 | 0.00 | 95 | 1010.3 |
| 20260903070814 | 70 | 122 | 0.0 | 0.0 | 0.00 | 0.00 | 0.00 | 95 | 1010.2 |
| 20260903070309 | 70 | 123 | 0.0 | 0.0 | 0.00 | 0.00 | 0.00 | 94 | 1010.5 |
| 20260903065804 | 70 | 123 | 0.0 | 0.0 | 0.00 | 0.00 | 0.00 | 94 | 1010.2 |
| 20260903065306 | 70 | 124 | 0.0 | 0.0 | 0.00 | 0.00 | 0.00 | 94 | 1010.2 |
| 20260903064802 | 70 | 124 | 0.0 | 0.0 | 0.00 | 0.00 | 0.00 | 94 | 1010.2 |
| 20260903064258 | 70 | 125 | 0.0 | 0.0 | 0.00 | 0.00 | 0.00 | 94 | 1010.3 |
| 20260903063749 | 70 | 126 | 0.0 | 0.0 | 0.00 | 0.00 | 0.00 | 93 | 1010.4 |
| 20260903063248 | 70 | 122 | 0.0 | 0.0 | 0.00 | 0.00 | 0.00 | 93 | 1010.3 |
| 20260903062740 | 70 | 122 | 0.0 | 0.0 | 0.00 | 0.00 | 0.00 | 93 | 1010.3 |
| 20260903062239 | 70 | 122 | 0.0 | 0.0 | 0.00 | 0.00 | 0.00 | 92 | 1010.2 |
| 20260903061735 | 70 | 122 | 0.0 | 0.0 | 0.00 | 0.00 | 0.00 | 92 | 1010.2 |
| 20260903061233 | 71 | 123 | 0.0 | 0.0 | 0.00 | 0.00 | 0.00 | 92 | 1010.4 |
| 20260903060729 | 71 | 123 | 0.0 | 0.0 | 0.00 | 0.00 | 0.00 | 92 | 1010.1 |
| 20260903060229 | 71 | 125 | 0.0 | 0.0 | 0.00 | 0.00 | 0.00 | 92 | 1010.1 |
| 20260903055726 | 71 | 125 | 0.0 | 0.0 | 0.00 | 0.00 | 0.00 | 92 | 1010.1 |
| 20260903055225 | 71 | 125 | 0.0 | 0.0 | 0.00 | 0.00 | 0.00 | 91 | 1010.3 |
| 20260903054720 | 71 | 125 | 0.0 | 0.0 | 0.00 | 0.00 | 0.00 | 90 | 1010.3 |
| 20260903054215 | 71 | 125 | 0.0 | 0.0 | 0.00 | 0.00 | 0.00 | 90 | 1010.2 |
| 20260903053712 | 71 | 125 | 0.0 | 0.0 | 0.00 | 0.00 | 0.00 | 90 | 1010.4 |
| 20260903053207 | 71 | 123 | 0.0 | 0.0 | 0.00 | 0.00 | 0.00 | 89 | 1010.1 |
| 20260903052703 | 71 | 123 | 0.0 | 0.0 | 0.00 | 0.00 | 0.00 | 89 | 1010.3 |
| 20260903052159 | 71 | 123 | 0.0 | 0.0 | 0.00 | 0.00 | 0.00 | 88 | 1010.1 |
| 20260903051658 | 71 | 123 | 0.0 | 0.0 | 0.00 | 0.00 | 0.00 | 88 | 1010.3 |
| 20260903051154 | 72 | 123 | 0.0 | 0.0 | 0.00 | 0.00 | 0.00 | 88 | 1010.1 |
| 20260903050649 | 72 | 123 | 0.0 | 0.0 | 0.00 | 0.00 | 0.00 | 87 | 1010.0 |
| 20260903050138 | 72 | 123 | 0.0 | 0.0 | 0.00 | 0.00 | 0.00 | 87 | 1010.2 |
| 20260903045637 | 72 | 123 | 0.0 | 0.0 | 0.00 | 0.00 | 0.00 | 86 | 1009.9 |
| 20260903045134 | 72 | 123 | 0.0 | 0.0 | 0.00 | 0.00 | 0.00 | 86 | 1010.1 |
| 20260903044629 | 73 | 123 | 0.0 | 0.0 | 0.00 | 0.00 | 0.00 | 86 | 1010.1 |
| 20260903044125 | 73 | 125 | 0.0 | 0.0 | 0.00 | 0.00 | 0.00 | 86 | 1010.0 |
| 20260903043621 | 73 | 125 | 0.0 | 0.0 | 0.00 | 0.00 | 0.00 | 85 | 1010.1 |
| 20260903043121 | 73 | 125 | 0.0 | 0.0 | 0.00 | 0.00 | 0.00 | 85 | 1010.0 |
| 20260903042620 | 73 | 125 | 0.0 | 0.0 | 0.00 | 0.00 | 0.00 | 85 | 1010.0 |
| 20260903042115 | 73 | 125 | 0.0 | 0.0 | 0.00 | 0.00 | 0.00 | 84 | 1010.0 |
| 20260903041612 | 73 | 124 | 0.0 | 0.0 | 0.00 | 0.00 | 0.00 | 84 | 1010.0 |
| 20260903041107 | 73 | 123 | 0.0 | 0.0 | 0.00 | 0.00 | 0.00 | 83 | 1009.9 |
| 20260903040606 | 74 | 124 | 0.0 | 0.0 | 0.00 | 0.00 | 0.00 | 83 | 1010.1 |
| 20260903040104 | 74 | 125 | 0.0 | 0.0 | 0.00 | 0.00 | 0.00 | 82 | 1010.0 |
| 20260903035604 | 74 | 125 | 0.0 | 0.0 | 0.00 | 0.00 | 0.00 | 82 | 1010.1 |
| 20260903035100 | 74 | 125 | 0.0 | 0.0 | 0.00 | 0.00 | 0.00 | 82 | 1009.9 |
| 20260903034554 | 74 | 125 | 0.0 | 0.0 | 0.00 | 0.00 | 0.00 | 81 | 1010.1 |
| 20260903034050 | 74 | 125 | 0.0 | 0.0 | 0.00 | 0.00 | 0.00 | 81 | 1009.9 |
| 20260903033545 | 75 | 125 | 0.0 | 0.0 | 0.00 | 0.00 | 0.00 | 81 | 1009.8 |
| 20260903033040 | 75 | 125 | 0.0 | 0.0 | 0.00 | 0.00 | 0.00 | 80 | 1009.8 |
| 20260903032535 | 75 | 125 | 0.0 | 0.0 | 0.00 | 0.00 | 0.00 | 79 | 1009.7 |
| 20260903032030 | 75 | 125 | 0.0 | 0.0 | 0.00 | 0.00 | 0.00 | 79 | 1009.8 |
| 20260903031530 | 75 | 125 | 0.0 | 0.0 | 0.00 | 0.00 | 0.00 | 79 | 1009.7 |
| 20260903031025 | 76 | 125 | 0.0 | 0.0 | 0.00 | 0.00 | 0.00 | 78 | 1009.7 |
| 20260903030521 | 76 | 124 | 0.0 | 0.0 | 0.00 | 0.00 | 0.00 | 77 | 1009.8 |
| 20260903030017 | 76 | 125 | 0.0 | 0.0 | 0.00 | 0.00 | 0.00 | 77 | 1009.7 |
| 20260903025512 | 76 | 125 | 0.0 | 0.0 | 0.00 | 0.00 | 0.00 | 77 | 1009.7 |
| 20260903025008 | 76 | 125 | 0.0 | 0.0 | 0.00 | 0.00 | 0.00 | 76 | 1009.7 |
| 20260903024507 | 77 | 124 | 0.0 | 0.0 | 0.00 | 0.00 | 0.00 | 76 | 1009.6 |
| 20260903024001 | 77 | 122 | 0.0 | 0.0 | 0.00 | 0.00 | 0.00 | 76 | 1009.5 |
| 20260903023457 | 77 | 123 | 0.0 | 0.0 | 0.00 | 0.00 | 0.00 | 75 | 1009.5 |
| 20260903022952 | 77 | 125 | 0.0 | 0.0 | 0.00 | 0.00 | 0.00 | 75 | 1009.3 |
| 20260903022451 | 77 | 125 | 0.0 | 0.0 | 0.00 | 0.00 | 0.00 | 74 | 1009.5 |
| 20260903021949 | 78 | 125 | 0.0 | 0.0 | 0.00 | 0.00 | 0.00 | 74 | 1009.4 |
| 20260903021445 | 78 | 128 | 0.0 | 0.0 | 0.00 | 0.00 | 0.00 | 73 | 1009.2 |
| 20260903020940 | 78 | 125 | 0.0 | 0.0 | 0.00 | 0.00 | 0.00 | 73 | 1009.1 |
| 20260903020436 | 78 | 125 | 0.0 | 0.0 | 0.00 | 0.00 | 0.00 | 72 | 1009.2 |
| 20260903015930 | 78 | 126 | 0.0 | 0.0 | 0.00 | 0.00 | 0.00 | 72 | 1009.3 |
| 20260903015426 | 79 | 126 | 0.0 | 0.0 | 0.00 | 0.00 | 0.00 | 71 | 1009.1 |
| 20260903014921 | 79 | 125 | 0.0 | 0.0 | 0.00 | 0.00 | 0.00 | 70 | 1009.0 |
| 20260903014415 | 79 | 126 | 0.0 | 0.0 | 0.00 | 0.00 | 0.00 | 70 | 1009.1 |
| 20260903013910 | 80 | 127 | 0.0 | 0.0 | 0.00 | 0.00 | 0.00 | 69 | 1008.9 |
| 20260903013410 | 80 | 127 | 0.0 | 0.0 | 0.00 | 0.00 | 0.00 | 69 | 1008.8 |
| 20260903012909 | 80 | 126 | 0.0 | 0.0 | 0.00 | 0.00 | 0.00 | 68 | 1008.8 |
| 20260903012408 | 81 | 128 | 0.0 | 0.0 | 0.00 | 0.00 | 0.00 | 67 | 1008.6 |
| 20260903011907 | 81 | 125 | 0.0 | 0.0 | 0.00 | 0.00 | 0.00 | 66 | 1008.7 |
| 20260903011402 | 82 | 126 | 0.0 | 0.0 | 0.00 | 0.00 | 0.00 | 65 | 1008.5 |
| 20260903010857 | 82 | 128 | 0.0 | 0.0 | 0.00 | 0.00 | 0.00 | 65 | 1008.5 |
| 20260903010353 | 82 | 128 | 0.0 | 0.0 | 0.00 | 0.00 | 0.00 | 64 | 1008.5 |
| 20260903005850 | 83 | 127 | 0.0 | 0.0 | 0.00 | 0.00 | 0.00 | 63 | 1008.5 |
| 20260903005346 | 84 | 128 | 0.0 | 0.0 | 0.00 | 0.00 | 0.00 | 62 | 1008.4 |
| 20260903004843 | 84 | 130 | 0.0 | 0.0 | 0.00 | 0.00 | 0.00 | 61 | 1008.5 |
| 20260903004338 | 85 | 132 | 0.0 | 0.0 | 0.00 | 0.00 | 0.00 | 60 | 1008.5 |
| 20260903003833 | 86 | 130 | 0.0 | 0.0 | 0.00 | 0.00 | 0.00 | 58 | 1008.4 |
| 20260903003327 | 87 | 136 | 0.0 | 1.0 | 0.00 | 0.00 | 0.00 | 57 | 1008.7 |
| 20260903002827 | 87 | 130 | 0.0 | 0.0 | 0.00 | 0.00 | 0.00 | 55 | 1008.4 |
| 20260903002322 | 88 | 133 | 0.0 | 0.0 | 0.00 | 0.00 | 0.00 | 53 | 1008.5 |
| 20260903001816 | 89 | 128 | 0.0 | 0.0 | 0.00 | 0.00 | 0.00 | 52 | 1008.5 |
| 20260903001312 | 90 | 125 | 0.0 | 1.0 | 0.00 | 0.00 | 0.00 | 50 | 1008.7 |
| 20260903000811 | 91 | 122 | 0.0 | 0.0 | 0.00 | 0.00 | 0.00 | 48 | 1008.2 |
| 20260903000306 | 92 | 126 | 0.0 | 0.0 | 0.00 | 0.00 | 0.00 | 47 | 1008.5 |
| 20260902235804 | 93 | 94 | 1.0 | 2.0 | 0.00 | 0.00 | 0.00 | 45 | 1008.2 |
| 20260902235259 | 93 | 116 | 2.0 | 2.0 | 0.00 | 0.00 | 0.00 | 44 | 1008.7 |
| 20260902234754 | 94 | 126 | 0.0 | 1.0 | 0.00 | 0.00 | 0.00 | 43 | 1008.4 |
| 20260902234253 | 95 | 105 | 0.0 | 1.0 | 0.00 | 0.00 | 0.00 | 41 | 1008.5 |
| 20260902233747 | 96 | 141 | 0.0 | 1.0 | 0.00 | 0.00 | 0.00 | 39 | 1008.4 |
| 20260902233242 | 97 | 78 | 3.0 | 3.0 | 0.00 | 0.00 | 0.00 | 39 | 1008.4 |
| 20260902232741 | 97 | 126 | 0.0 | 1.0 | 0.00 | 0.00 | 0.00 | 38 | 1008.6 |
| 20260902232241 | 98 | 87 | 3.0 | 3.0 | 0.00 | 0.00 | 0.00 | 37 | 1008.7 |
| 20260902231740 | 99 | 248 | 2.0 | 2.0 | 0.00 | 0.00 | 0.00 | 36 | 1008.6 |
| 20260902231236 | 100 | 167 | 3.0 | 3.0 | 0.00 | 0.00 | 0.00 | 35 | 1008.6 |
| 20260902230736 | 99 | 181 | 1.0 | 2.0 | 0.00 | 0.00 | 0.00 | 36 | 1008.5 |
| 20260902230235 | 100 | 95 | 1.0 | 1.0 | 0.00 | 0.00 | 0.00 | 36 | 1008.6 |
| 20260902225729 | 100 | 130 | 0.0 | 1.0 | 0.00 | 0.00 | 0.00 | 36 | 1008.6 |
| 20260902225225 | 100 | 136 | 2.0 | 2.0 | 0.00 | 0.00 | 0.00 | 35 | 1008.6 |
| 20260902224723 | 100 | 157 | 3.0 | 3.0 | 0.00 | 0.00 | 0.00 | 35 | 1008.9 |
| 20260902224219 | 101 | 123 | 1.0 | 1.0 | 0.00 | 0.00 | 0.00 | 35 | 1008.9 |
| 20260902223715 | 101 | 160 | 1.0 | 2.0 | 0.00 | 0.00 | 0.00 | 34 | 1008.8 |
| 20260902223214 | 101 | 199 | 2.0 | 3.0 | 0.00 | 0.00 | 0.00 | 34 | 1008.5 |
| 20260902222713 | 100 | 115 | 1.0 | 1.0 | 0.00 | 0.00 | 0.00 | 34 | 1008.8 |
| 20260902222213 | 101 | 84 | 1.0 | 2.0 | 0.00 | 0.00 | 0.00 | 33 | 1008.7 |
| 20260902221707 | 101 | 212 | 3.0 | 3.0 | 0.00 | 0.00 | 0.00 | 33 | 1008.6 |
| 20260902221206 | 101 | 189 | 3.0 | 3.0 | 0.00 | 0.00 | 0.00 | 33 | 1008.9 |
| 20260902220702 | 102 | 332 | 3.0 | 5.0 | 0.00 | 0.00 | 0.00 | 31 | 1008.5 |
| 20260902220203 | 103 | 119 | 1.0 | 1.0 | 0.00 | 0.00 | 0.00 | 31 | 1008.5 |
| 20260902215658 | 102 | 170 | 2.0 | 2.0 | 0.00 | 0.00 | 0.00 | 31 | 1009.0 |
| 20260902215153 | 102 | 146 | 2.0 | 2.0 | 0.00 | 0.00 | 0.00 | 32 | 1008.8 |
| 20260902214648 | 102 | 0 | 3.0 | 5.0 | 0.00 | 0.00 | 0.00 | 32 | 1008.8 |
| 20260902214148 | 103 | 93 | 2.0 | 2.0 | 0.00 | 0.00 | 0.00 | 31 | 1009.1 |
| 20260902213643 | 102 | 121 | 2.0 | 2.0 | 0.00 | 0.00 | 0.00 | 32 | 1008.8 |
| 20260902213143 | 101 | 130 | 2.0 | 3.0 | 0.00 | 0.00 | 0.00 | 32 | 1009.0 |
| 20260902212638 | 101 | 217 | 3.0 | 5.0 | 0.00 | 0.00 | 0.00 | 33 | 1009.1 |
| 20260902212134 | 98 | 51 | 1.0 | 2.0 | 0.00 | 0.00 | 0.00 | 36 | 1009.0 |
| 20260902211630 | 101 | 74 | 3.0 | 3.0 | 0.00 | 0.00 | 0.00 | 35 | 1009.3 |
| 20260902211125 | 101 | 206 | 3.0 | 3.0 | 0.00 | 0.00 | 0.00 | 34 | 1009.0 |
| 20260902210625 | 102 | 153 | 2.0 | 2.0 | 0.00 | 0.00 | 0.00 | 34 | 1009.3 |
| 20260902210120 | 101 | 85 | 2.0 | 3.0 | 0.00 | 0.00 | 0.00 | 35 | 1009.1 |
| 20260902205619 | 100 | 142 | 1.0 | 1.0 | 0.00 | 0.00 | 0.00 | 35 | 1009.3 |
| 20260902205114 | 101 | 70 | 3.0 | 5.0 | 0.00 | 0.00 | 0.00 | 34 | 1009.2 |
| 20260902204609 | 99 | 166 | 1.0 | 1.0 | 0.00 | 0.00 | 0.00 | 37 | 1009.2 |
| 20260902204103 | 98 | 74 | 2.0 | 2.0 | 0.00 | 0.00 | 0.00 | 38 | 1009.5 |
| 20260902203559 | 97 | 108 | 0.0 | 1.0 | 0.00 | 0.00 | 0.00 | 38 | 1009.5 |
| 20260902203058 | 99 | 131 | 1.0 | 1.0 | 0.00 | 0.00 | 0.00 | 36 | 1009.8 |
| 20260902202554 | 100 | 116 | 2.0 | 2.0 | 0.00 | 0.00 | 0.00 | 35 | 1009.6 |
| 20260902202050 | 100 | 55 | 1.0 | 3.0 | 0.00 | 0.00 | 0.00 | 35 | 1009.7 |
| 20260902201546 | 98 | 142 | 1.0 | 1.0 | 0.00 | 0.00 | 0.00 | 37 | 1009.6 |
| 20260902201044 | 98 | 111 | 1.0 | 2.0 | 0.00 | 0.00 | 0.00 | 37 | 1009.7 |
| 20260902200540 | 100 | 201 | 3.0 | 3.0 | 0.00 | 0.00 | 0.00 | 34 | 1009.8 |
| 20260902200031 | 101 | 156 | 3.0 | 3.0 | 0.00 | 0.00 | 0.00 | 35 | 1010.0 |
| 20260902195526 | 102 | 276 | 4.0 | 6.0 | 0.00 | 0.00 | 0.00 | 36 | 1010.0 |
| 20260902195024 | 102 | 142 | 1.0 | 2.0 | 0.00 | 0.00 | 0.00 | 35 | 1010.0 |
| 20260902194524 | 102 | 144 | 1.0 | 1.0 | 0.00 | 0.00 | 0.00 | 34 | 1009.9 |
| 20260902194019 | 101 | 159 | 2.0 | 3.0 | 0.00 | 0.00 | 0.00 | 37 | 1010.2 |
| 20260902193515 | 101 | 158 | 1.0 | 2.0 | 0.00 | 0.00 | 0.00 | 35 | 1010.2 |
| 20260902193015 | 100 | 163 | 2.0 | 2.0 | 0.00 | 0.00 | 0.00 | 36 | 1010.2 |
| 20260902192513 | 100 | 147 | 1.0 | 2.0 | 0.00 | 0.00 | 0.00 | 36 | 1010.5 |
| 20260902192012 | 100 | 156 | 2.0 | 3.0 | 0.00 | 0.00 | 0.00 | 36 | 1010.6 |
| 20260902191508 | 100 | 39 | 3.0 | 5.0 | 0.00 | 0.00 | 0.00 | 36 | 1010.6 |
| 20260902191002 | 100 | 218 | 4.0 | 6.0 | 0.00 | 0.00 | 0.00 | 36 | 1010.8 |
| 20260902190458 | 100 | 105 | 2.0 | 2.0 | 0.00 | 0.00 | 0.00 | 36 | 1010.8 |
| 20260902185953 | 100 | 132 | 2.0 | 2.0 | 0.00 | 0.00 | 0.00 | 36 | 1010.6 |
| 20260902185449 | 100 | 145 | 2.0 | 2.0 | 0.00 | 0.00 | 0.00 | 35 | 1010.8 |
| 20260902184944 | 100 | 52 | 1.0 | 3.0 | 0.00 | 0.00 | 0.00 | 38 | 1010.8 |
| 20260902184439 | 99 | 127 | 0.0 | 1.0 | 0.00 | 0.00 | 0.00 | 39 | 1010.8 |
| 20260902183935 | 99 | 88 | 0.0 | 1.0 | 0.00 | 0.00 | 0.00 | 38 | 1010.7 |
| 20260902183431 | 99 | 92 | 2.0 | 2.0 | 0.00 | 0.00 | 0.00 | 36 | 1011.0 |
| 20260902182927 | 98 | 114 | 2.0 | 2.0 | 0.00 | 0.00 | 0.00 | 40 | 1011.1 |